• en France
  • Liste des pays
  • À 7 jours
  • Température de l'eau
  • Carte satellitaire
  • Carte météo
  • Widgets météo
  • user-avatar
    Se connecter

    Météo par heure à Melbourne

    Ce jour, 23 Octobre, Mardi

    Heure Température Précipitation Vent Pression Humidité
    00:00 +14°C° 0 mm 2 m/s 757 mmHg 76%
    01:00 +12°C° 0 mm 1 m/s 757 mmHg 87%
    02:00 +12°C° 0 mm 1 m/s 757 mmHg 89%
    03:00 +12°C° 0 mm 1 m/s 757 mmHg 90%
    04:00 +12°C° 0 mm 1 m/s 756 mmHg 92%
    05:00 +13°C° 0 mm 2 m/s 757 mmHg 89%
    06:00 +14°C° 0 mm 2 m/s 757 mmHg 86%
    07:00 +14°C° 0 mm 2 m/s 757 mmHg 83%
    08:00 +15°C° 0 mm 2 m/s 758 mmHg 73%
    09:00 +17°C° 0 mm 3 m/s 758 mmHg 68%
    10:00 +18°C° 0 mm 3 m/s 758 mmHg 67%
    11:00 +18°C° 0 mm 3 m/s 758 mmHg 63%
    12:00 +19°C° 0 mm 3 m/s 758 mmHg 59%
    13:00 +19°C° 0 mm 3 m/s 758 mmHg 55%
    14:00 +19°C° 0 mm 3 m/s 759 mmHg 56%
    15:00 +18°C° 0 mm 4 m/s 759 mmHg 57%
    16:00 +17°C° 0 mm 5 m/s 759 mmHg 57%
    17:00 +15°C° 0 mm 4 m/s 760 mmHg 60%
    18:00 +14°C° 0 mm 4 m/s 761 mmHg 63%
    19:00 +13°C° 0 mm 4 m/s 762 mmHg 65%
    20:00 +12°C° 0 mm 3 m/s 763 mmHg 66%
    21:00 +11°C° 0 mm 3 m/s 763 mmHg 68%
    22:00 +10°C° 0 mm 3 m/s 764 mmHg 69%
    23:00 +9°C° 0 mm 3 m/s 764 mmHg 72%

    Demain, 24 Octobre, Mercredi

    Heure Température Précipitation Vent Pression Humidité
    00:00 +8°C° 0 mm 3 m/s 765 mmHg 76%
    01:00 +8°C° 0 mm 2 m/s 765 mmHg 79%
    02:00 +7°C° 0 mm 2 m/s 765 mmHg 81%
    03:00 +7°C° 0 mm 2 m/s 765 mmHg 82%
    04:00 +6°C° 0 mm 2 m/s 765 mmHg 84%
    05:00 +8°C° 0 mm 3 m/s 766 mmHg 78%
    06:00 +9°C° 0 mm 3 m/s 766 mmHg 73%
    07:00 +10°C° 0 mm 3 m/s 766 mmHg 67%
    08:00 +11°C° 0 mm 3 m/s 766 mmHg 61%
    09:00 +13°C° 0 mm 3 m/s 766 mmHg 55%
    10:00 +14°C° 0 mm 3 m/s 767 mmHg 48%
    11:00 +16°C° 0 mm 3 m/s 766 mmHg 46%
    12:00 +17°C° 0 mm 3 m/s 766 mmHg 44%
    13:00 +18°C° 0 mm 4 m/s 765 mmHg 41%
    14:00 +18°C° 0 mm 4 m/s 765 mmHg 43%
    15:00 +17°C° 0 mm 4 m/s 765 mmHg 44%
    16:00 +17°C° 0 mm 4 m/s 764 mmHg 46%
    17:00 +15°C° 0 mm 4 m/s 765 mmHg 52%
    18:00 +13°C° 0 mm 3 m/s 765 mmHg 59%
    19:00 +11°C° 0 mm 3 m/s 765 mmHg 66%
    20:00 +10°C° 0 mm 3 m/s 765 mmHg 71%
    21:00 +9°C° 0 mm 3 m/s 765 mmHg 77%
    22:00 +8°C° 0 mm 2 m/s 766 mmHg 83%
    23:00 +8°C° 0 mm 2 m/s 765 mmHg 85%

    Après-demain, 25 Octobre, Jeudi

    Heure Température Précipitation Vent Pression Humidité
    00:00 +8°C° 0 mm 1 m/s 765 mmHg 88%
    01:00 +8°C° 0 mm 1 m/s 765 mmHg 90%
    02:00 +7°C° 0 mm 1 m/s 764 mmHg 90%
    03:00 +7°C° 0 mm 1 m/s 764 mmHg 90%
    04:00 +7°C° 0 mm 1 m/s 764 mmHg 89%
    05:00 +8°C° 0 mm 2 m/s 764 mmHg 83%
    06:00 +9°C° 0 mm 2 m/s 764 mmHg 77%
    07:00 +12°C° 0 mm 2 m/s 764 mmHg 71%
    08:00 +13°C° 0 mm 3 m/s 763 mmHg 62%
    09:00 +17°C° 0 mm 3 m/s 763 mmHg 53%
    10:00 +20°C° 0 mm 3 m/s 763 mmHg 43%
    11:00 +21°C° 0 mm 3 m/s 762 mmHg 39%
    12:00 +22°C° 0 mm 3 m/s 762 mmHg 35%
    13:00 +25°C° 0 mm 3 m/s 762 mmHg 32%
    14:00 +23°C° 0 mm 4 m/s 761 mmHg 33%
    15:00 +23°C° 0 mm 4 m/s 761 mmHg 35%
    16:00 +23°C° 0 mm 4 m/s 761 mmHg 37%
    17:00 +20°C° 0 mm 4 m/s 761 mmHg 48%
    18:00 +18°C° 0 mm 4 m/s 762 mmHg 59%
    19:00 +14°C° 0 mm 3 m/s 762 mmHg 70%
    20:00 +13°C° 0 mm 3 m/s 763 mmHg 76%
    21:00 +13°C° 0 mm 2 m/s 763 mmHg 81%
    22:00 +10°C° 0 mm 2 m/s 764 mmHg 87%
    23:00 +10°C° 0 mm 2 m/s 763 mmHg 89%

    26 Octobre, Vendredi

    Heure Température Précipitation Vent Pression Humidité
    00:00 +9°C° 0 mm 2 m/s 763 mmHg 91%
    01:00 +8°C° 0 mm 2 m/s 763 mmHg 93%
    02:00 +8°C° 0 mm 2 m/s 763 mmHg 94%
    03:00 +8°C° 0 mm 2 m/s 763 mmHg 95%
    04:00 +8°C° 0 mm 2 m/s 763 mmHg 96%
    05:00 +9°C° 0 mm 3 m/s 763 mmHg 93%
    06:00 +10°C° 0 mm 3 m/s 763 mmHg 91%
    07:00 +11°C° 0 mm 3 m/s 764 mmHg 88%
    08:00 +12°C° 0.1 mm 3 m/s 764 mmHg 81%
    09:00 +13°C° 0.1 mm 3 m/s 764 mmHg 74%
    10:00 +14°C° 0.1 mm 3 m/s 764 mmHg 67%
    11:00 +16°C° 0 mm 3 m/s 763 mmHg 61%
    12:00 +18°C° 0 mm 3 m/s 763 mmHg 54%
    13:00 +19°C° 0 mm 2 m/s 763 mmHg 48%
    14:00 +19°C° 0 mm 2 m/s 762 mmHg 48%
    15:00 +19°C° 0 mm 3 m/s 762 mmHg 47%
    16:00 +19°C° 0 mm 3 m/s 761 mmHg 47%
    17:00 +17°C° 0 mm 2 m/s 762 mmHg 56%
    18:00 +15°C° 0 mm 2 m/s 762 mmHg 65%
    19:00 +13°C° 0 mm 2 m/s 762 mmHg 73%
    20:00 +12°C° 0 mm 2 m/s 762 mmHg 79%
    21:00 +11°C° 0 mm 1 m/s 762 mmHg 84%
    22:00 +9°C° 0 mm 1 m/s 763 mmHg 90%
    23:00 +9°C° 0 mm 1 m/s 762 mmHg 90%

    27 Octobre, Samedi

    Heure Température Précipitation Vent Pression Humidité
    00:00 +9°C° 0 mm 1 m/s 762 mmHg 91%
    01:00 +9°C° 0 mm 1 m/s 761 mmHg 91%
    02:00 +9°C° 0 mm 1 m/s 761 mmHg 90%
    03:00 +9°C° 0 mm 1 m/s 760 mmHg 88%
    04:00 +9°C° 0 mm 1 m/s 760 mmHg 87%
    05:00 +10°C° 0 mm 1 m/s 760 mmHg 80%
    06:00 +12°C° 0 mm 1 m/s 760 mmHg 73%
    07:00 +13°C° 0 mm 1 m/s 760 mmHg 65%
    08:00 +15°C° 0 mm 2 m/s 760 mmHg 60%
    09:00 +16°C° 0 mm 2 m/s 760 mmHg 54%
    10:00 +18°C° 0 mm 2 m/s 760 mmHg 49%
    11:00 +19°C° 0 mm 2 m/s 759 mmHg 46%
    12:00 +20°C° 0 mm 2 m/s 759 mmHg 42%
    13:00 +21°C° 0 mm 3 m/s 758 mmHg 39%
    14:00 +21°C° 0 mm 3 m/s 758 mmHg 40%
    15:00 +22°C° 0 mm 3 m/s 758 mmHg 41%
    16:00 +22°C° 0 mm 4 m/s 758 mmHg 43%
    17:00 +20°C° 0 mm 4 m/s 758 mmHg 52%
    18:00 +18°C° 0 mm 4 m/s 758 mmHg 61%
    19:00 +15°C° 0 mm 4 m/s 759 mmHg 70%
    20:00 +14°C° 0 mm 4 m/s 759 mmHg 73%
    21:00 +13°C° 0 mm 4 m/s 760 mmHg 77%
    22:00 +11°C° 0 mm 4 m/s 760 mmHg 81%
    23:00 +11°C° 0 mm 4 m/s 760 mmHg 81%

    28 Octobre, Dimanche

    Heure Température Précipitation Vent Pression Humidité
    00:00 +11°C° 0 mm 4 m/s 760 mmHg 81%
    01:00 +10°C° 0 mm 4 m/s 760 mmHg 81%
    02:00 +10°C° 0 mm 4 m/s 761 mmHg 78%
    03:00 +10°C° 0 mm 4 m/s 761 mmHg 75%
    04:00 +10°C° 0 mm 4 m/s 761 mmHg 72%
    05:00 +9°C° 0 mm 5 m/s 761 mmHg 69%
    06:00 +9°C° 0 mm 5 m/s 762 mmHg 67%
    07:00 +9°C° 0 mm 5 m/s 762 mmHg 64%
    08:00 +10°C° 0 mm 5 m/s 763 mmHg 59%
    09:00 +13°C° 0 mm 5 m/s 763 mmHg 54%
    10:00 +14°C° 0 mm 5 m/s 763 mmHg 48%
    11:00 +15°C° 0 mm 5 m/s 763 mmHg 46%
    12:00 +15°C° 0 mm 5 m/s 762 mmHg 44%
    13:00 +16°C° 0 mm 5 m/s 762 mmHg 42%
    14:00 +16°C° 0 mm 5 m/s 762 mmHg 42%
    15:00 +16°C° 0 mm 5 m/s 762 mmHg 43%
    16:00 +16°C° 0 mm 5 m/s 762 mmHg 44%
    17:00 +14°C° 0 mm 5 m/s 762 mmHg 49%
    18:00 +13°C° 0 mm 5 m/s 763 mmHg 54%
    19:00 +10°C° 0 mm 5 m/s 763 mmHg 59%
    20:00 +10°C° 0 mm 4 m/s 763 mmHg 62%
    21:00 +10°C° 0 mm 4 m/s 764 mmHg 64%
    22:00 +8°C° 0 mm 4 m/s 764 mmHg 67%
    23:00 +7°C° 0 mm 4 m/s 764 mmHg 70%

    29 Octobre, Lundi

    Heure Température Précipitation Vent Pression Humidité
    00:00 +7°C° 0 mm 3 m/s 764 mmHg 73%
    01:00 +7°C° 0 mm 3 m/s 764 mmHg 76%
    02:00 +5°C° 0 mm 3 m/s 764 mmHg 78%
    03:00 +5°C° 0 mm 3 m/s 764 mmHg 81%
    04:00 +5°C° 0 mm 2 m/s 764 mmHg 84%
    05:00 +6°C° 0 mm 2 m/s 764 mmHg 78%
    06:00 +8°C° 0 mm 2 m/s 765 mmHg 73%
    07:00 +9°C° 0 mm 2 m/s 765 mmHg 67%
    08:00 +13°C° 0 mm 2 m/s 765 mmHg 59%
    09:00 +16°C° 0 mm 1 m/s 765 mmHg 50%
    10:00 +20°C° 0 mm 1 m/s 764 mmHg 42%
    11:00 +22°C° 0 mm 1 m/s 764 mmHg 39%
    12:00 +23°C° 0 mm 1 m/s 763 mmHg 36%
    13:00 +24°C° 0 mm 1 m/s 763 mmHg 34%
    14:00 +24°C° 0 mm 2 m/s 762 mmHg 35%
    15:00 +24°C° 0 mm 2 m/s 762 mmHg 35%
    16:00 +24°C° 0 mm 2 m/s 762 mmHg 36%
    17:00 +21°C° 0 mm 2 m/s 762 mmHg 46%
    18:00 +18°C° 0 mm 2 m/s 762 mmHg 55%
    19:00 +16°C° 0 mm 2 m/s 762 mmHg 64%
    20:00 +15°C° 0 mm 1 m/s 762 mmHg 68%
    21:00 +13°C° 0 mm 1 m/s 762 mmHg 72%
    22:00 +12°C° 0 mm 1 m/s 763 mmHg 76%
    23:00 +12°C° 0 mm 1 m/s 762 mmHg 76%
    Voir plus